Tracking 31027 objects as of 19-Jul-2025
HD Live streaming from Space Station
objects crossing your sky now

COSMOS 385

Track COSMOS 385 now!
10-day predictions
COSMOS 385 is classified as:


NORAD ID: 4799
Int'l Code: 1970-108A
Perigee: 978.4 km
Apogee: 985.3 km
Inclination: 74.0 °
Period: 104.6 minutes
Semi major axis: 7352 km
RCS: 3.9806 m2 (large)
Launch date: December 12, 1970
Source: Commonwealth of Independent States (former USSR) (CIS)
Launch site: PLESETSK MISSILE AND SPACE COMPLEX (PKMTR)
Your satellite tracking list
ONEWEB-0142
Track 1 satellite(s)




NASA's NSSDC Master Catalog

Two Line Element Set (TLE):
1 04799U 70108A   25199.50122491  .00000007  00000-0  30032-4 0  9994
2 04799  74.0189 225.6268 0004715 249.1521 220.6333 13.76949790742627
Source of the keplerian elements: AFSPC